STARLINK-11249, 60728

Orbit data source: Space-Track

STARLINK-11249, 60728 is a payload satellite owned by SpaceX/Seattle (US) in LEO that was launched on Wed, 28 Aug 2024 UTC via an FALCON 9 launch vehicle from the Air Force Eastern Test Range (AFETR). Payload-class satellites include a variety of spacecraft equipped with specific instruments for various scientific and technological missions. These include communications satellites like Starlink; space stations such as the ISS; scientific satellites like the Hubble; Earth observation satellites from companies like Planet Labs, Umbra, and HawkEye 360; GPS; miniature CubeSats for education and research; and military/defense satellites.

Loading next visibility...
Identifier
60728, 2024-152J
Orbit
LEO
Last TLE update
10 hours ago
Origin
Manufacturer
SpaceX/Seattle
Mission
Operational Commercial Communications
Bus & Motor
STARLINK V2M, Unknown motor
Mass
730 kg wet, ~700 kg dry
Launch date (UTC)
2024-08-28 (10 months ago)
Launch vehicle
FALCON 9
Launch site
Air Force Eastern Test Range (AFETR)
Object type
Payload
Rocket body
Debris
Shape & HBR
Box + 2 Pan, 29 m
Radar Cross Section
36.964 m², Large (>1 m²)

Expand to show TLE details & history

TLE from 10 hours ago
0 STARLINK-11249
1 60728U 24152J   25182.68428857 -.00000851  00000-0 -21749-5 0  9997
2 60728  53.1589 273.4887 0000569  69.3002 290.8077 15.69702794 49438
Epoch: 2025-07-01T16:25Z
TLE epoch observation values (Epoch: 2025-07-01T16:25:22.532Z)
Latitude
-0.00001°
Longitude
107.1686°
Altitude
360.526 km
Speed
7.694 km/s
True Right ascension
18h 13m 57s
True Declination
0° 00' 00"
Sunlit
Object was in full shadow at epoch
Visualization orbit readout
Latitude
-23.88396°
Longitude
-55.63591°
Altitude
366.92 km
Speed
7.689 km/s
Apparent Right ascension
05h 07m 43s
Apparent Declination
-38° 10' 50"
Sunlit
Object is in daylight
Visualization observer readout
Local Sidereal Time
14:10:03
Azimuth
258.309° W
Elevation
-55.819°
Doppler factor
1
Orbital elements
Apogee altitude
360.392 km
Perigee altitude
359.625 km
Semi-major axis
6,738.145 km
Eccentricity
0.00006
Inclination
53.1589°
RAAN
273.4887°
Arg. of periapsis
69.3002°
True anomaly
Unknown
Mean anomaly
290.8077°
Eccentric anomaly
Unknown
Mean motion
3.92403 °/min
Orbital period
91.74 mins
BSTAR
-0.0000021749
Loading maneuver chart data...
Loading SW <> Apogee altitude chart data...
Loading historical data...
Loading historical data...
Loading historical data...
Loading historical data...
Loading historical data...
Loading historical data...
Loading historical data...

STARLINK-11249 Visibility forecast

Observer location: undefined°, undefined°

Span
Click to sort rows by Start time (UTC) header in descending order
Start Az.
Max El. time (UTC)
Max El. Az.
Max El.
End time (UTC)
End Az.
4 mins2025-07-02 15:51:58.021Z293.368° NW2025-07-02 15:53:58.021Z183.547° SSW36.491°2025-07-02 15:55:58.021Z146.165° SSE
|